Gage, OK

5:44 PM CST on February 05, 2016 (GMT -0600)
Gage

Weather History for KGAG - November, 2012

Change the Weather History Date:

Tuesday, November 13, 2012

  Actual Average Record
Temperature  
Mean Temperature 42 °F -  
Max Temperature 55 °F 61 °F 84 °F (1999)
Min Temperature 28 °F 34 °F 9 °F (1986)
Degree Days  
Heating Degree Days 24    
Moisture  
Dew Point 21 °F    
Average Humidity 47    
Maximum Humidity 75    
Minimum Humidity 25    
Precipitation  
Precipitation 0.00 in - - ()
Sea Level Pressure  
Sea Level Pressure 30.33 in    
Wind  
Wind Speed 11 mph (SSW)    
Max Wind Speed 25 mph    
Max Gust Speed 31 mph    
Visibility 10 miles    
Events      
Averages and records for this station are not official NWS values.
T = Trace of Precipitation, MM = Missing Value Source: NWS Daily Summary

Daily Weather History Graph

Daily Weather History Graph

Search for Another Location

Airport or City:

Trip Planner

Search our weather history database for the weather conditions in past years. The results will help you decide how hot, cold, wet, or windy it might be!

Date:

Astronomy

Nov. 13, 2012 Rise Set
Actual Time 7:14 AM CST 5:31 PM CST
Civil Twilight 6:47 AM CST 5:59 PM CST
Nautical Twilight 6:16 AM CST 6:30 PM CST
Astronomical Twilight 5:45 AM CST 7:00 PM CST
Moon 6:54 AM CST (11/13) 5:27 PM CST (11/13)
Length of Visible Light 11h 11m
Length of Day
10h 17m
Waning Crescent, 0% of the Moon is Illuminated
Nov 13
Waning Crescent
Nov 13
New
Nov 20
First Quarter
Nov 28
Full
Dec 6
Last Quarter

Hourly Weather History & Observations

Time (CST) Temp. Windchill Dew Point Humidity Pressure Visibility Wind Dir Wind Speed Gust Speed Precip Events Conditions
12:53 AM 33.1 °F 28.7 °F 23.0 °F 66% 30.43 in 10.0 mi SSW 4.6 mph - N/A   Clear
1:53 AM 32.0 °F 25.6 °F 23.0 °F 69% 30.43 in 10.0 mi SW 6.9 mph - N/A   Clear
2:53 AM 28.9 °F - 21.9 °F 75% 30.41 in 10.0 mi Calm Calm - N/A   Clear
3:53 AM 32.0 °F 24.2 °F 21.9 °F 66% 30.39 in 10.0 mi SSW 9.2 mph - N/A   Clear
4:53 AM 28.9 °F 25.2 °F 21.0 °F 72% 30.39 in 10.0 mi SW 3.5 mph - N/A   Clear
5:53 AM 30.9 °F 26.2 °F 21.9 °F 69% 30.40 in 10.0 mi SSW 4.6 mph - N/A   Clear
6:53 AM 28.0 °F 24.2 °F 21.0 °F 75% 30.43 in 10.0 mi WSW 3.5 mph - N/A   Clear
7:53 AM 33.1 °F 24.9 °F 24.1 °F 70% 30.43 in 10.0 mi South 10.4 mph - N/A   Clear
8:53 AM 39.9 °F 32.9 °F 24.1 °F 53% 30.41 in 10.0 mi South 11.5 mph - N/A   Clear
9:53 AM 45.0 °F 38.2 °F 24.1 °F 44% 30.40 in 10.0 mi SSW 15.0 mph - N/A   Clear
10:53 AM 50.0 °F - 24.1 °F 36% 30.38 in 10.0 mi SSW 19.6 mph 23.0 mph N/A   Clear
11:53 AM 55.0 °F - 21.0 °F 27% 30.34 in 10.0 mi South 25.3 mph 31.1 mph N/A   Clear
12:53 PM 53.1 °F - 19.9 °F 27% 30.31 in 10.0 mi South 25.3 mph 31.1 mph N/A   Clear
1:53 PM 53.1 °F - 19.9 °F 27% 30.27 in 10.0 mi South 21.9 mph - N/A   Clear
2:53 PM 54.0 °F - 21.0 °F 28% 30.24 in 10.0 mi South 20.7 mph 26.5 mph N/A   Clear
3:53 PM 55.0 °F - 19.9 °F 25% 30.24 in 10.0 mi SSW 18.4 mph 27.6 mph N/A   Clear
4:53 PM 53.1 °F - 21.0 °F 29% 30.24 in 10.0 mi South 16.1 mph - N/A   Clear
5:53 PM 48.0 °F - 21.0 °F 34% 30.25 in 10.0 mi South 11.5 mph - N/A   Clear
6:53 PM 45.0 °F 38.2 °F 19.9 °F 37% 30.27 in 10.0 mi South 15.0 mph - N/A   Clear
7:53 PM 45.0 °F 37.1 °F 17.1 °F 33% 30.26 in 10.0 mi South 19.6 mph - N/A   Clear
8:53 PM 45.0 °F 37.4 °F 17.1 °F 33% 30.26 in 10.0 mi South 18.4 mph - N/A   Clear
9:53 PM 44.1 °F 35.7 °F 17.1 °F 34% 30.26 in 10.0 mi South 20.7 mph - N/A   Clear
10:53 PM 41.0 °F 33.9 °F 19.0 °F 41% 30.27 in 10.0 mi SSW 12.7 mph - N/A   Clear
11:53 PM 37.9 °F 30.9 °F 19.0 °F 47% 30.27 in 10.0 mi WNW 10.4 mph - N/A   Clear